Location: Copper Breaks State Park
(34.1132°N, 99.7492°W)
Time: 02:18:14
(UTC-06:00)

Amateur Radio Satellites - All Passes

Search period start: 07 February 2016 01:48
Search period end: 08 February 2016 01:48
Location: Copper Breaks State Park, 34.1132°N, 99.7492°W

Satellite Date Start Highest point End Downlink Frequencies (MHz)
Time Altitude Azimuth
CUSAT 1 07 Feb 01:48:23 01:55:12 38° 88° (E) 02:02:30 437.405
DANDE 07 Feb 01:54:56 02:00:26 24° 83° (E) 02:06:32 436.750
ISS 07 Feb 02:00:58 02:01:54 11° 234° (SW) 02:02:51 145.825
ITAMSAT 1 07 Feb 02:06:29 02:08:51 13° 92° (E) 02:11:14 435.822/435.867
YUBILEINY 07 Feb 02:12:08 02:12:54 10° 76° (ENE) 02:13:41 435.215
SWISSCUBE 07 Feb 02:12:19 02:17:02 66° 259° (W) 02:21:47 437.505
KKS-1 07 Feb 02:19:41 02:22:21 16° 67° (ENE) 02:25:01 437.445
Oscar 19 07 Feb 02:42:15 02:47:04 43° 288° (WNW) 02:51:52 437.125/150
Gurwin Techsat 1B 07 Feb 02:46:04 02:51:24 72° 102° (ESE) 02:56:41 435.225
ITUPSAT 1 07 Feb 02:48:02 02:52:11 30° 262° (W) 02:56:23 437.325
PHONESAT 2.4 07 Feb 02:53:41 02:56:58 72° 338° (NNW) 03:00:14 2401.200-2431.200
BEESAT 07 Feb 02:59:16 03:02:59 23° 264° (W) 03:06:43 436.000
Cosmos 2491 07 Feb 03:13:37 03:22:22 75° 82° (E) 03:31:08 435.465 / 435.565
JAS-2 07 Feb 03:17:49 03:22:53 34° 291° (WNW) 03:27:35 435.910
MOZHAYETS 4 07 Feb 03:24:15 03:28:10 29° 71° (ENE) 03:32:07
CUSAT 1 07 Feb 03:30:11 03:37:19 42° 285° (WNW) 03:44:59 437.405
DANDE 07 Feb 03:35:28 03:42:32 63° 282° (WNW) 03:50:52 436.750
ITAMSAT 1 07 Feb 03:43:30 03:48:39 61° 286° (WNW) 03:53:48 435.822/435.867
STARS 07 Feb 03:45:47 03:50:12 82° 76° (ENE) 03:54:37 437.465
KKS-1 07 Feb 03:54:21 03:58:33 40° 261° (W) 04:02:46 437.445
BEESAT 3 07 Feb 03:55:46 03:59:43 71° 243° (WSW) 04:03:36 437.485
YUBILEINY 07 Feb 03:59:21 04:08:02 74° 94° (E) 04:16:50 435.215
BEESAT 2 07 Feb 04:14:04 04:18:02 70° 244° (WSW) 04:21:58 435.950
AO-7 07 Feb 04:24:13 04:32:32 69° 105° (ESE) 04:40:46 29.400- 29.500
Gurwin Techsat 1B 07 Feb 04:28:31 04:30:40 12° 297° (WNW) 04:32:49 435.225
PHONESAT 2.4 07 Feb 04:31:41 04:34:33 27° 353° (N) 04:37:25 2401.200-2431.200
MOZHAYETS 4 07 Feb 05:01:51 05:05:18 21° 265° (W) 05:08:47
SO-50 07 Feb 05:03:11 05:06:57 23° 110° (ESE) 05:10:47 436.795
M-CUBED/EXP-1 PRIME 07 Feb 05:04:22 05:07:42 60° 288° (WNW) 05:11:12 437.505
Cosmos 2491 07 Feb 05:12:39 05:18:11 19° 279° (W) 05:23:44 435.465 / 435.565
HORYU 2 07 Feb 05:15:52 05:20:19 75° 285° (WNW) 05:24:45 437.375
AUBIESAT-1 07 Feb 05:17:08 05:20:27 50° 289° (WNW) 05:23:56 437.475
DANDE 07 Feb 05:25:39 05:27:19 11° 301° (WNW) 05:29:00 436.750
CUBESAT XI-V 07 Feb 05:32:14 05:36:53 72° 76° (ENE) 05:41:35 437.345
Cosmos 2504 07 Feb 05:39:22 05:47:39 70° 92° (E) 05:56:25 435.465 / 435.565
AIST 2 07 Feb 05:44:06 05:48:13 78° 243° (WSW) 05:52:18 435.215
YUBILEINY 07 Feb 05:59:35 06:05:38 20° 291° (WNW) 06:11:45 435.215
PHONESAT 2.4 07 Feb 06:09:23 06:12:20 30° 10° (N) 06:15:17 2401.200-2431.200
AO-7 07 Feb 06:18:19 06:24:32 24° 302° (WNW) 06:30:45 29.400- 29.500
STRAND 1 07 Feb 06:33:47 06:38:30 40° 72° (ENE) 06:43:16 437.568
CUTE-I 07 Feb 06:37:22 06:42:35 49° 100° (E) 06:47:47 437.470
SO-50 07 Feb 06:42:42 06:47:12 36° 305° (NW) 06:51:47 436.795
Cubesat XI-IV 07 Feb 06:49:59 06:55:21 67° 102° (ESE) 07:00:41 437.490
LilacSat-2 07 Feb 06:51:21 06:55:07 66° 101° (ESE) 06:58:52 437.200
BRITE-PL 07 Feb 06:52:20 06:56:39 33° 96° (E) 07:00:38 437.365/2234.400
PRISM 07 Feb 06:56:18 06:59:02 17° 68° (ENE) 07:01:48 437.425
Cosmos 2504 07 Feb 07:35:31 07:41:46 22° 291° (WNW) 07:48:16 435.465 / 435.565
PHONESAT 2.4 07 Feb 07:46:33 07:49:50 78° 206° (SSW) 07:53:04 2401.200-2431.200
O/OREOS (USA 219) 07 Feb 07:55:48 07:58:44 17° 100° (E) 08:01:40 437.305
HO-68 07 Feb 08:01:02 08:06:59 27° 96° (E) 08:12:53 435.675
CANX-2 07 Feb 08:08:09 08:11:38 24° 96° (E) 08:15:05 2200.000
DOVE 4 07 Feb 08:10:27 08:14:39 59° 100° (E) 08:18:44 437.250
GOMX 1 07 Feb 08:13:57 08:18:20 56° 285° (WNW) 08:22:27 467.674
STRAND 1 07 Feb 08:14:09 08:17:47 19° 265° (W) 08:21:25 437.568
CUTE-I 07 Feb 08:18:38 08:22:11 18° 295° (WNW) 08:25:45 437.470
PRISM 07 Feb 08:30:26 08:34:06 31° 262° (W) 08:37:49 437.425
BRITE-PL 07 Feb 08:31:30 08:34:48 19° 293° (WNW) 08:37:58 437.365/2234.400
Cubesat XI-IV 07 Feb 08:32:10 08:34:47 14° 297° (WNW) 08:37:25 437.490
CUTE 1.7 + AOD 2 07 Feb 08:58:40 09:02:58 88° 105° (ESE) 09:07:16 437.475
Cosmos 2499 07 Feb 09:01:20 09:05:45 15° 78° (ENE) 09:10:13 435.465 / 435.565
COMPASS 1 07 Feb 09:01:53 09:06:00 49° 100° (E) 09:10:05 437.405
SEEDS 07 Feb 09:10:27 09:14:44 90° 254° (WSW) 09:18:59 437.485
ANTELSAT 07 Feb 09:14:40 09:16:35 13° 67° (ENE) 09:18:30 437.575/2403.000
TIGRISAT 07 Feb 09:22:02 09:24:29 15° 68° (ENE) 09:26:55 435.000
GONETS M04 07 Feb 09:24:07 09:32:33 59° 91° (E) 09:41:02
PHONESAT 2.4 07 Feb 09:25:34 09:26:42 11° 219° (SW) 09:27:50 2401.200-2431.200
ZACube-1 07 Feb 09:26:43 09:30:03 22° 96° (E) 09:33:24 437.345
CINEMA 3 07 Feb 09:27:11 09:31:12 50° 285° (WNW) 09:35:14 145.822/145.860
AAUSAT CUBESAT 2 07 Feb 09:33:25 09:37:38 81° 283° (WNW) 09:41:50 437.432
O/OREOS (USA 219) 07 Feb 09:33:45 09:37:48 34° 294° (WNW) 09:41:54 437.305
DELFI C3 07 Feb 09:36:52 09:39:49 19° 95° (E) 09:42:46 145.870
FUNcube-1 07 Feb 09:37:07 09:40:45 28° 97° (E) 09:44:27 145.935
CANX-2 07 Feb 09:43:57 09:47:22 23° 289° (WNW) 09:50:46 2200.000
HO-68 07 Feb 09:47:59 09:54:50 49° 291° (WNW) 10:01:39 435.675
CUBEBUG 2 07 Feb 09:54:11 09:58:21 76° 283° (WNW) 10:02:36 437.445
UWE-3 07 Feb 10:01:17 10:05:29 89° 284° (WNW) 10:09:46 435.000/436.395/437.385
UNISAT 6 07 Feb 10:03:34 10:07:47 48° 74° (ENE) 10:11:56 437.425
AO-85 07 Feb 10:03:57 10:06:48 15° 105° (ESE) 10:09:43 145.980
JUGNU 07 Feb 10:04:22 10:07:55 16° 171° (S) 10:11:28 437.505
HUMSAT D 07 Feb 10:11:25 10:14:32 20° 96° (E) 10:17:40 437.325/437.525
Oscar 11 07 Feb 10:14:16 10:18:36 70° 284° (WNW) 10:22:55 145.826/435.025
AIST 1 07 Feb 10:21:02 10:22:56 13° 86° (E) 10:24:49
COMPASS 1 07 Feb 10:39:42 10:41:06 11° 293° (WNW) 10:42:30 437.405
ANTELSAT 07 Feb 10:48:42 10:52:54 46° 261° (W) 10:57:03 437.575/2403.000
Cosmos 2499 07 Feb 10:48:57 10:57:30 90° 104° (ESE) 11:06:27 435.465 / 435.565
POLYITAN 1 07 Feb 10:51:39 10:55:36 39° 74° (ENE) 10:59:33 437.675
QB50P2 07 Feb 10:52:25 10:56:24 41° 74° (ENE) 11:00:24 145.880/145.840
TIGRISAT 07 Feb 10:56:45 11:00:51 39° 261° (W) 11:04:53 435.000
ZACube-1 07 Feb 11:02:52 11:06:14 24° 289° (WNW) 11:09:40 437.345
VELOX 1 07 Feb 11:06:19 11:08:54 15° 94° (E) 11:11:28 145.980
BUGSAT 1 07 Feb 11:11:18 11:15:01 30° 72° (ENE) 11:18:43 437.445
DELFI C3 07 Feb 11:11:21 11:14:40 25° 289° (WNW) 11:17:59 145.870
FUNcube-1 07 Feb 11:13:50 11:16:49 19° 290° (WNW) 11:19:49 145.935
AISAT 07 Feb 11:21:34 11:25:11 24° 96° (E) 11:28:45 437.250
POPSAT HIP 1 07 Feb 11:22:39 11:26:54 87° 262° (W) 11:31:10 437.405
GONETS M04 07 Feb 11:22:57 11:29:48 26° 288° (WNW) 11:36:43
PCSat 07 Feb 11:28:00 11:33:17 58° 112° (ESE) 11:38:37 145.827
NANOSAT C BR1 07 Feb 11:29:14 11:33:29 74° 259° (W) 11:37:42 145.865
ESTCUBE 1 07 Feb 11:31:20 11:35:32 35° 98° (E) 11:39:41 437.505/2401.250
DUCHIFAT 1 07 Feb 11:32:00 11:36:13 71° 258° (WSW) 11:40:26 145.980
SRMSAT 07 Feb 11:35:14 11:38:17 14° 168° (SSE) 11:41:20 437.500
QB50P1 07 Feb 11:35:40 11:39:51 58° 260° (W) 11:44:03 145.935-145.965
AO-85 07 Feb 11:41:29 11:46:42 64° 300° (WNW) 11:52:11 145.980
UNISAT 6 07 Feb 11:43:22 11:44:42 11° 267° (W) 11:46:03 437.425
JAS-2 07 Feb 11:44:52 11:46:15 11° 59° (ENE) 11:47:37 435.910
HUMSAT D 07 Feb 11:46:40 11:50:07 26° 288° (WNW) 11:53:35 437.325/437.525
CUBEBUG 1 07 Feb 11:49:22 11:53:30 41° 99° (E) 11:57:35 437.445
UKube-1 07 Feb 11:50:07 11:54:17 46° 100° (E) 11:58:26 .
JUGNU 07 Feb 11:52:09 11:56:14 20° 181° (S) 12:00:20 437.505
AIST 1 07 Feb 11:55:55 12:00:04 42° 280° (W) 12:04:16
DX 1 07 Feb 11:56:50 12:01:11 69° 102° (ESE) 12:05:29 434.975-435.025
50 SAT 07 Feb 11:57:49 12:01:38 89° 284° (WNW) 12:05:27 437.505
RS-15 07 Feb 11:58:25 12:09:11 63° 112° (ESE) 12:20:29 29.354- 29.394
SPROUT 07 Feb 12:05:08 12:08:18 20° 95° (E) 12:11:27 437.525
Oscar 19 07 Feb 12:17:34 12:21:11 19° 67° (ENE) 12:24:48 437.125/150
TISAT 1 07 Feb 12:26:47 12:28:11 11° 93° (E) 12:29:35 437.305
POLYITAN 1 07 Feb 12:29:24 12:31:33 14° 266° (W) 12:33:42 437.675
QB50P2 07 Feb 12:30:24 12:32:22 13° 267° (W) 12:34:20 145.880/145.840
CUSAT 1 07 Feb 12:32:34 12:35:46 15° 63° (ENE) 12:38:35 437.405
VELOX 1 07 Feb 12:41:24 12:45:30 38° 287° (WNW) 12:49:33 145.980
DANDE 07 Feb 12:42:11 12:45:05 13° 60° (ENE) 12:47:44 436.750
Cosmos 2499 07 Feb 12:46:42 12:51:47 17° 294° (WNW) 12:56:58 435.465 / 435.565
BUGSAT 1 07 Feb 12:47:34 12:50:24 17° 265° (W) 12:53:15 437.445
AISAT 07 Feb 12:58:00 13:01:32 24° 290° (WNW) 13:05:03 437.250
ESTCUBE 1 07 Feb 13:08:58 13:12:02 18° 292° (WNW) 13:15:05 437.505/2401.250
PCSat 07 Feb 13:13:26 13:17:03 18° 309° (NW) 13:20:43 145.827
ITAMSAT 1 07 Feb 13:21:03 13:23:51 15° 64° (ENE) 13:26:39 435.822/435.867
JAS-2 07 Feb 13:22:23 13:30:07 66° 74° (ENE) 13:37:19 435.910
SRMSAT 07 Feb 13:22:36 13:26:45 20° 178° (S) 13:30:54 437.500
CUBEBUG 1 07 Feb 13:27:01 13:29:24 15° 293° (WNW) 13:31:46 437.445
AO-85 07 Feb 13:27:56 13:28:19 10° 319° (NW) 13:28:43 145.980
UKube-1 07 Feb 13:27:57 13:29:54 13° 294° (WNW) 13:31:51 .
AO-7 07 Feb 13:32:46 13:35:43 12° 51° (NE) 13:38:40 29.400- 29.500
SPROUT 07 Feb 13:40:39 13:44:14 27° 289° (WNW) 13:47:48 437.525
JUGNU 07 Feb 13:41:18 13:44:32 15° 191° (S) 13:47:48 437.505
Oscar 19 07 Feb 13:55:13 14:00:08 43° 261° (W) 14:05:04 437.125/150
TISAT 1 07 Feb 14:00:04 14:04:03 44° 286° (WNW) 14:08:00 437.305
Gurwin Techsat 1B 07 Feb 14:03:20 14:08:37 78° 75° (ENE) 14:13:57 435.225
RS-15 07 Feb 14:12:12 14:22:12 36° 314° (NW) 14:32:46 29.354- 29.394
CUSAT 1 07 Feb 14:13:08 14:18:49 51° 268° (W) 14:23:06 437.405
YUBILEINY 07 Feb 14:15:00 14:22:31 30° 73° (ENE) 14:29:58 435.215
SWISSCUBE 07 Feb 14:16:20 14:20:55 42° 99° (E) 14:25:26 437.505
Cosmos 2491 07 Feb 14:18:11 14:22:44 15° 79° (E) 14:27:18 435.465 / 435.565
DANDE 07 Feb 14:22:19 14:29:27 86° 264° (W) 14:34:48 436.750
ITUPSAT 1 07 Feb 14:51:29 14:56:20 88° 281° (W) 15:01:09 437.325
ITAMSAT 1 07 Feb 14:57:41 15:02:46 58° 259° (W) 15:07:54 435.822/435.867
BEESAT 07 Feb 15:01:52 15:06:38 67° 285° (WNW) 15:11:23 436.000
JAS-2 07 Feb 15:09:38 15:15:20 22° 266° (W) 15:20:50 435.910
SRMSAT 07 Feb 15:11:25 15:15:15 18° 188° (S) 15:19:04 437.500
SO-50 07 Feb 15:17:29 15:22:16 75° 59° (ENE) 15:26:52 436.795
AO-7 07 Feb 15:18:39 15:26:55 67° 69° (ENE) 15:35:11 29.400- 29.500
Cosmos 2504 07 Feb 15:38:42 15:44:42 20° 68° (ENE) 15:50:26 435.465 / 435.565
STARS 07 Feb 15:39:56 15:43:05 19° 95° (E) 15:46:15 437.465
M-CUBED/EXP-1 PRIME 07 Feb 15:47:59 15:51:51 87° 72° (ENE) 15:55:26 437.505
KKS-1 07 Feb 15:48:48 15:53:06 49° 100° (E) 15:57:22 437.445
SWISSCUBE 07 Feb 15:55:14 15:58:20 17° 293° (WNW) 16:01:25 437.505
AUBIESAT-1 07 Feb 16:00:17 16:04:05 80° 253° (WSW) 16:07:39 437.475
Cosmos 2491 07 Feb 16:09:36 16:18:21 85° 276° (W) 16:27:06 435.465 / 435.565
HORYU 2 07 Feb 16:10:02 16:14:24 62° 75° (ENE) 16:18:45 437.375
YUBILEINY 07 Feb 16:11:06 16:19:32 51° 270° (W) 16:27:55 435.215
RS-15 07 Feb 16:34:56 16:39:50 13° 347° (NNW) 16:44:48 29.354- 29.394
MOZHAYETS 4 07 Feb 16:59:13 17:03:50 69° 284° (WNW) 17:08:27
ISS 07 Feb 16:59:28 17:02:40 59° 318° (NW) 17:05:53 145.825
AO-7 07 Feb 17:13:56 17:20:08 23° 265° (W) 17:26:21 29.400- 29.500
STARS 07 Feb 17:15:40 17:19:27 29° 289° (WNW) 17:23:13 437.465
KKS-1 07 Feb 17:27:17 17:29:12 13° 294° (WNW) 17:31:07 437.445
Cosmos 2504 07 Feb 17:30:20 17:38:55 72° 267° (W) 17:46:52 435.465 / 435.565
LilacSat-2 07 Feb 17:30:41 17:33:25 19° 71° (ENE) 17:36:08 437.200
CUBESAT XI-V 07 Feb 17:33:17 17:37:05 24° 95° (E) 17:40:51 437.345
BEESAT 3 07 Feb 17:43:20 17:47:08 47° 115° (ESE) 17:51:00 437.485
GOMX 1 07 Feb 17:43:38 17:44:45 11° 64° (ENE) 17:45:52 467.674
CUTE-I 07 Feb 17:55:28 18:00:38 56° 73° (ENE) 18:05:52 437.470
BRITE-PL 07 Feb 17:58:04 18:03:02 32° 71° (ENE) 18:07:59 437.365/2234.400
BEESAT 2 07 Feb 18:02:46 18:06:40 50° 115° (ESE) 18:10:33 435.950
Cubesat XI-IV 07 Feb 18:08:13 18:13:31 75° 75° (ENE) 18:18:51 437.490
O/OREOS (USA 219) 07 Feb 18:08:33 18:11:56 20° 62° (ENE) 18:15:17 437.305
Cosmos 2491 07 Feb 18:12:16 18:16:24 14° 295° (WNW) 18:20:34 435.465 / 435.565
HO-68 07 Feb 18:28:32 18:32:00 14° 57° (ENE) 18:35:27 435.675
STRAND 1 07 Feb 18:48:54 18:52:28 18° 94° (E) 18:55:59 437.568
RS-15 07 Feb 18:52:34 18:59:54 17° 26° (NNE) 19:07:19 29.354- 29.394
CANX-2 07 Feb 18:59:44 19:00:51 11° 66° (ENE) 19:01:57 2200.000
LilacSat-2 07 Feb 19:04:30 19:07:34 23° 264° (W) 19:10:38 437.200
CUBESAT XI-V 07 Feb 19:10:24 19:14:23 28° 289° (WNW) 19:18:20 437.345
DOVE 4 07 Feb 19:11:16 19:16:11 43° 73° (ENE) 19:20:52 437.250
GOMX 1 07 Feb 19:16:37 19:22:07 86° 259° (W) 19:27:27 467.674
BEESAT 3 07 Feb 19:23:11 19:25:09 13° 310° (NW) 19:27:08 437.485
BRITE-PL 07 Feb 19:36:25 19:41:22 31° 264° (W) 19:46:20 437.365/2234.400
AIST 2 07 Feb 19:37:55 19:41:59 54° 116° (ESE) 19:46:04 435.215
CUTE-I 07 Feb 19:38:07 19:40:59 15° 267° (W) 19:43:51 437.470
GONETS M04 07 Feb 19:39:57 19:46:40 24° 71° (ENE) 19:53:23
BEESAT 2 07 Feb 19:42:54 19:44:50 13° 311° (NW) 19:46:45 435.950
O/OREOS (USA 219) 07 Feb 19:47:15 19:51:22 33° 256° (WSW) 19:55:28 437.305
CUTE 1.7 + AOD 2 07 Feb 19:47:45 19:51:37 37° 73° (ENE) 19:55:29 437.475
COMPASS 1 07 Feb 19:49:50 19:52:55 21° 70° (ENE) 19:56:01 437.405
Cubesat XI-IV 07 Feb 19:53:20 19:54:03 10° 269° (W) 19:54:48 437.490
SEEDS 07 Feb 19:58:37 20:02:26 36° 73° (ENE) 20:06:17 437.485
HO-68 07 Feb 20:11:29 20:18:39 87° 75° (ENE) 20:25:53 435.675
PRISM 07 Feb 20:15:26 20:19:27 45° 100° (E) 20:23:26 437.425
AO-85 07 Feb 20:17:41 20:22:33 43° 56° (NE) 20:26:59 145.980
AAUSAT CUBESAT 2 07 Feb 20:20:05 20:23:54 38° 74° (ENE) 20:27:45 437.432
PCSat 07 Feb 20:20:19 20:24:31 22° 54° (NE) 20:28:42 145.827
ZACube-1 07 Feb 20:21:02 20:22:29 12° 67° (ENE) 20:23:56 437.345
CINEMA 3 07 Feb 20:24:18 20:29:04 88° 76° (ENE) 20:33:37 145.822/145.860
STRAND 1 07 Feb 20:26:54 20:31:45 43° 288° (WNW) 20:36:35 437.568
FUNcube-1 07 Feb 20:30:29 20:32:48 15° 68° (ENE) 20:35:06 145.935
CANX-2 07 Feb 20:32:08 20:36:12 51° 260° (W) 20:40:19 2200.000
Cosmos 2499 07 Feb 20:46:43 20:53:28 26° 71° (ENE) 20:59:47 435.465 / 435.565
CUBEBUG 2 07 Feb 20:48:24 20:52:41 54° 76° (ENE) 20:56:53 437.445
DOVE 4 07 Feb 20:50:23 20:53:56 18° 266° (W) 20:57:23 437.250
UWE-3 07 Feb 20:54:35 20:58:42 44° 74° (ENE) 21:02:44 435.000/436.395/437.385
RS-15 07 Feb 21:04:10 21:16:04 54° 54° (NE) 21:28:01 29.354- 29.394
Oscar 11 07 Feb 21:05:04 21:09:15 54° 75° (ENE) 21:13:26 145.826/435.025
AIST 2 07 Feb 21:18:46 21:20:48 13° 311° (NW) 21:22:49 435.215
COMPASS 1 07 Feb 21:24:54 21:28:20 25° 264° (W) 21:31:46 437.405
CUTE 1.7 + AOD 2 07 Feb 21:25:19 21:27:34 14° 267° (W) 21:29:49 437.475
GONETS M04 07 Feb 21:35:23 21:44:02 64° 268° (W) 21:52:43
SEEDS 07 Feb 21:36:03 21:38:15 14° 267° (W) 21:40:28 437.485
PRISM 07 Feb 21:52:36 21:54:21 12° 294° (WNW) 21:56:05 437.425
DELFI C3 07 Feb 21:53:04 21:57:01 73° 260° (W) 22:01:00 145.870
ZACube-1 07 Feb 21:54:14 21:58:21 48° 260° (W) 22:02:25 437.345
AAUSAT CUBESAT 2 07 Feb 21:57:37 21:59:33 13° 267° (W) 22:01:29 437.432
AO-85 07 Feb 21:59:21 22:02:35 18° 253° (WSW) 22:05:37 145.980
UNISAT 6 07 Feb 22:00:28 22:02:35 13° 93° (E) 22:04:45 437.425
PCSat 07 Feb 22:02:56 22:08:05 45° 250° (WSW) 22:13:11 145.827
HO-68 07 Feb 22:03:55 22:07:03 13° 269° (W) 22:10:13 435.675
FUNcube-1 07 Feb 22:04:47 22:08:44 37° 262° (W) 22:12:38 145.935
AIST 1 07 Feb 22:06:58 22:10:49 30° 78° (ENE) 22:14:37
AISAT 07 Feb 22:16:30 22:19:02 15° 67° (ENE) 22:21:34 437.250
ESTCUBE 1 07 Feb 22:27:48 22:31:14 22° 69° (ENE) 22:34:40 437.505/2401.250
HUMSAT D 07 Feb 22:33:35 22:37:38 60° 260° (W) 22:41:40 437.325/437.525
UWE-3 07 Feb 22:33:38 22:35:20 12° 267° (W) 22:37:00 435.000/436.395/437.385
50 SAT 07 Feb 22:35:04 22:38:04 24° 72° (ENE) 22:41:04 437.505
Cosmos 2499 07 Feb 22:38:55 22:46:59 54° 270° (W) 22:54:27 435.465 / 435.565
UKube-1 07 Feb 22:41:28 22:45:00 25° 70° (ENE) 22:48:31 .
CUBEBUG 1 07 Feb 22:42:07 22:45:34 23° 70° (ENE) 22:49:01 437.445
ANTELSAT 07 Feb 22:43:47 22:47:57 45° 99° (E) 22:52:11 437.575/2403.000
DX 1 07 Feb 22:48:41 22:52:42 36° 72° (ENE) 22:56:42 434.975-435.025
TIGRISAT 07 Feb 22:51:27 22:55:41 53° 100° (E) 22:59:59 435.000
SPROUT 07 Feb 22:57:53 22:58:36 10° 66° (ENE) 22:59:18 437.525
POPSAT HIP 1 07 Feb 23:12:10 23:15:13 19° 95° (E) 23:18:16 437.405
RS-15 07 Feb 23:17:08 23:28:13 43° 253° (WSW) 23:39:21 29.354- 29.394
NANOSAT C BR1 07 Feb 23:18:10 23:21:28 22° 96° (E) 23:24:46 145.865
DUCHIFAT 1 07 Feb 23:20:38 23:23:58 23° 96° (E) 23:27:16 145.980
QB50P1 07 Feb 23:24:34 23:28:12 28° 97° (E) 23:31:49 145.935-145.965
ISS 07 Feb 23:30:24 23:33:10 26° 36° (NE) 23:35:57 145.825
VELOX 1 07 Feb 23:34:23 23:38:50 71° 258° (WSW) 23:43:19 145.980
UNISAT 6 07 Feb 23:35:22 23:39:27 42° 286° (WNW) 23:43:37 437.425
AIST 1 07 Feb 23:45:21 23:48:06 17° 273° (W) 23:50:51
AISAT 07 Feb 23:50:53 23:55:08 42° 261° (W) 23:59:24 437.250
ESTCUBE 1 08 Feb 00:03:56 00:07:50 29° 263° (W) 00:11:47 437.505/2401.250
50 SAT 08 Feb 00:09:39 00:12:03 17° 265° (W) 00:14:28 437.505
POLYITAN 1 08 Feb 00:15:46 00:19:56 63° 284° (WNW) 00:24:04 437.675
QB50P2 08 Feb 00:16:34 00:20:43 59° 284° (WNW) 00:24:51 145.880/145.840
UKube-1 08 Feb 00:17:29 00:20:56 23° 264° (W) 00:24:25 .
CUBEBUG 1 08 Feb 00:17:57 00:21:41 27° 263° (W) 00:25:27 437.445
ANTELSAT 08 Feb 00:22:11 00:24:17 13° 293° (WNW) 00:26:24 437.575/2403.000
PHONESAT 2.4 08 Feb 00:24:59 00:25:40 10° 141° (SE) 00:26:21 2401.200-2431.200
DX 1 08 Feb 00:26:14 00:28:57 16° 265° (W) 00:31:41 434.975-435.025
SPROUT 08 Feb 00:29:48 00:34:02 58° 259° (W) 00:38:17 437.525
TIGRISAT 08 Feb 00:30:31 00:31:55 11° 294° (WNW) 00:33:19 435.000
BUGSAT 1 08 Feb 00:31:40 00:35:43 90° 102° (ESE) 00:39:44 437.445
POPSAT HIP 1 08 Feb 00:47:26 00:50:58 27° 289° (WNW) 00:54:30 437.405
TISAT 1 08 Feb 00:47:33 00:51:47 79° 76° (ENE) 00:56:02 437.305
NANOSAT C BR1 08 Feb 00:53:47 00:57:06 23° 290° (WNW) 01:00:26 145.865
DUCHIFAT 1 08 Feb 00:56:16 00:59:34 23° 290° (WNW) 01:02:51 145.980
QB50P1 08 Feb 01:00:48 01:03:46 19° 291° (WNW) 01:06:44 145.935-145.965
ISS 08 Feb 01:06:54 01:09:33 23° 230° (SW) 01:12:11 145.825
SWISSCUBE 08 Feb 01:19:22 01:23:33 32° 71° (ENE) 01:27:46 437.505
CUSAT 1 08 Feb 01:27:26 01:33:52 30° 86° (E) 01:40:39 437.405
